{"data":{"norad_id":68687,"epoch":"2026-09-20T03:26:59.114400Z","epoch_age_seconds":94139,"freshness":"FRESH","line1":"1 68687U 26078A   26263.14373975 -.00000060  00000+0 -17391-3 0  9997","line2":"2 68687  86.4958 250.4050 0002229  82.7886 277.3502 13.24402192 21543","mean_motion":13.24402192,"eccentricity":0.0002229,"inclination_deg":86.4958,"raan_deg":250.405,"arg_perigee_deg":82.7886,"mean_anomaly_deg":277.3502,"bstar":-0.00017391,"rev_number":2154,"period_min":108.72830086648,"perigee_km":1166.2698208724,"apogee_km":1169.6338672791,"semimajor_km":7546.0888440757,"source":"CELESTRAK","updated_at":"2026-09-20T09:00:24.407611Z"}}